Weather Service Report


188 
ASUS41 KCTP 011910
RWRCTP

REGIONAL WEATHER ROUNDUP
NATIONAL WEATHER SERVICE STATE COLLEGE PA
300 PM EDT WED JUL 01 2015

Note: "fair" indicates few or no clouds below 12,000 feet with no 
significant weather and/or obstructions to visibility.

* = STATION THAT DOES NOT REPORT PRECIPITATION /E.G. RAIN...SNOW...ETC/
    THUNDER OR FOG.

PAZ002>004-007>009-013>016-020>023-029>032-012000-
WESTERN PENNSYLVANIA
  
CITY           SKY/WX    TMP DP  RH WIND       PRES   REMARKS
ERIE           PTSUNNY   69  58  67 W12       29.90S                  
MEADVILLE      PTSUNNY   70  57  63 W5        29.92R                  
FRANKLIN*      CLOUDY    70  55  60 W9        29.93S                  
NEW CASTLE     MOCLDY    74  62  66 CALM      29.92S                  
BEAVER COUNTY  PTSUNNY   73  61  64 SW8       29.92F                  
BUTLER*        CLOUDY    72  61  68 W7        29.92F                  
PITTSBURGH INT PTSUNNY   74  59  59 SW12      29.91F                  
PITTSBURGH     MOSUNNY   72  57  59 W8        29.91F                  
INDIANA*       MOSUNNY   72  63  73 W18G26    29.94F                  
LATROBE        PTSUNNY   73  63  68 W9        29.93F                  
WASHINGTON CO* NOT AVBL                                               
$$

PAZ004>006-010>012-017>019-024>028-033>037-041-042-045-046-049>053-012000-
CENTRAL PENNSYLVANIA
  
CITY           SKY/WX    TMP DP  RH WIND       PRES   REMARKS
BRADFORD       CLOUDY    66  55  67 NW12G21   29.90R                  
DUBOIS         CLOUDY    72  59  63 NW12G21   29.90R                  
CLEARFIELD     CLOUDY    71  59  65 W9        29.89S                  
JOHNSTOWN      PTSUNNY   69  57  65 W15G23    29.94F                  
ALTOONA        SUNNY     74  59  59 W13       29.91F                  
STATE COLLEGE  PTSUNNY   73  61  64 W14       29.87S                  
WILLIAMSPORT   PTSUNNY   77  61  57 W9        29.80F                  
SELINSGROVE    CLOUDY    77  61  57 VRB3      29.84S                  
FT INDIANTOWN  MOSUNNY   80  57  46 W12G21    29.83S                  
CAPITAL CITY   PTSUNNY   79  60  52 W12       29.84S                  
HARRISBURG     PTSUNNY   81  61  50 NW13G22   29.83R                  
YORK           PTSUNNY   79  64  60 W9        29.85S                  
$$

PAZ038>040-043-044-047-048-054-055-060>062-067>071-012000-
EASTERN PENNSYLVANIA
  
CITY           SKY/WX    TMP DP  RH WIND       PRES   REMARKS
SCRANTON       CLOUDY    77  59  53 W16G25    29.80F                  
MOUNT POCONO   PTSUNNY   71  56  58 W16G25    29.84F                  
ALLENTOWN      MOSUNNY   81  64  56 SW14G26   29.80F                  
QUAKERTOWN*    PTCLDY    81  64  57 W13G18    29.82F                  
READING        PTSUNNY   80  63  55 W12       29.81S                  
LANCASTER      SUNNY     80  62  54 W20G28    29.82S                  
COATESVILLE    PTCLDY    79  66  65 W13       29.85S                  
POTTSTOWN      PTSUNNY   79  63  57 W8        29.83S                  
BLUE BELL      MOSUNNY   82  64  54 W7G17     29.80F                  
DOYLESTOWN     MOSUNNY   81  61  50 SW12G22   29.80F                  
WILLOW GROVE   NOT AVBL                                               
NORTH PHILA    PTSUNNY   84  61  45 W13G20    29.80F                  
PHILADELPHIA   MOSUNNY   85  64  49 W15       29.80F                  
$$

Return to Home page


Western Regional Climate Center, wrcc@dri.edu